Location: *
(37.5724°S, 58.0067°E)
Time: 20:17:24
(UTC+00:00)

Cosmos 2219 - Pass Details

Date: 26 September 2020
Orbit: 832 x 861 km, 71.1° (Epoch: 27 October)

Event Time Altitude Azimuth Distance (km) Brightness Sun altitude
Exits shadow 22:38:58 39° 120° (ESE) 1,285 4.4 -36.1°
Drops below altitude 10° 22:42:51 10° 147° (SSE) 2,513 6.3 -35.5°
Sets 22:45:22 0° 152° (SSE) 3,451 7.2 -35.0°
